Date,TemperatureHighF,TemperatureAvgF,TemperatureLowF,DewpointHighF,DewpointAvgF,DewpointLowF,HumidityHigh,HumidityAvg,HumidityLow,PressureMaxIn,PressureMinIn,WindSpeedMaxMPH,WindSpeedAvgMPH,GustSpeedMaxMPH,PrecipitationSumIn
2013-8-1,93.6,77.6,64.9,70.3,64.8,59.7,94,68,35,0.00,40.00,12,1,12,0.00
2013-8-2,87.6,74.5,68.2,73.0,67.5,63.9,94,80,60,0.00,40.00,19,1,19,0.00
2013-8-3,86.4,75.2,66.7,67.8,63.4,58.6,95,69,46,0.00,40.00,14,1,14,0.00
2013-8-4,84.9,72.9,62.6,63.9,60.8,57.4,83,67,46,0.00,40.00,17,1,17,0.00
2013-8-5,81.0,73.5,66.0,71.2,66.6,61.2,91,79,70,0.00,40.00,21,1,21,0.00
2013-8-6,89.1,77.4,67.6,75.6,71.4,65.8,96,83,62,0.00,40.00,18,1,19,0.00
2013-8-7,86.7,77.2,70.9,78.1,72.6,65.7,94,86,72,0.00,40.00,12,1,12,0.19
2013-8-8,84.0,73.4,63.9,71.1,66.8,61.0,92,80,62,0.00,40.00,10,1,11,0.00
2013-8-9,86.7,75.7,67.8,67.8,66.0,63.1,91,73,50,0.00,40.00,11,0,11,0.00
2013-8-10,83.8,75.1,64.6,67.5,61.2,56.8,84,64,42,0.00,40.00,22,1,22,0.00
2013-8-11,89.1,75.7,61.0,66.6,61.9,56.1,86,65,44,0.00,40.00,12,0,14,0.00
2013-8-12,85.6,75.6,67.5,72.7,66.5,62.2,86,74,64,0.00,40.00,18,0,18,0.00
2013-8-13,82.0,69.8,61.2,64.8,59.5,53.1,89,71,49,0.00,40.00,14,1,15,0.00
2013-8-14,80.2,66.5,53.1,54.9,51.7,48.7,87,61,39,0.00,40.00,16,0,16,0.00
2013-8-15,81.1,67.1,58.1,58.5,54.3,51.8,83,65,43,0.00,40.00,10,0,10,0.00
2013-8-16,79.9,69.4,59.9,58.8,56.7,54.3,83,66,45,0.00,40.00,12,1,12,0.00
2013-8-17,82.0,73.1,59.9,60.8,57.7,54.3,83,60,43,0.00,40.00,15,1,21,0.00
2013-8-18,87.1,73.1,59.4,64.9,60.5,54.7,85,66,47,0.00,40.00,15,0,15,0.00
2013-8-19,88.0,76.1,63.1,68.4,64.6,60.1,92,69,49,0.00,40.00,17,1,17,0.00
2013-8-20,91.2,78.6,65.8,71.4,66.5,62.2,89,68,44,0.00,40.00,13,1,14,0.00
2013-8-21,92.7,79.9,67.5,70.7,67.7,63.9,89,68,48,0.00,40.00,15,1,18,0.00
2013-8-22,91.8,79.8,69.4,74.1,71.0,65.7,88,75,55,0.00,40.00,11,1,12,0.00
2013-8-23,92.1,79.7,68.9,73.9,69.8,66.6,93,74,52,0.00,40.00,10,1,10,0.00
2013-8-24,92.7,80.2,68.9,74.1,69.3,65.1,89,71,50,0.00,40.00,11,1,11,0.00
2013-8-25,95.0,81.3,69.3,72.3,67.6,64.2,85,65,43,0.00,40.00,15,1,15,0.00
2013-8-26,96.6,83.0,68.2,76.1,70.3,64.4,90,67,47,0.00,40.00,15,2,16,0.00
2013-8-27,97.7,84.9,73.2,72.9,68.7,63.3,88,61,39,0.00,40.00,22,2,24,0.00
2013-8-28,101.8,87.1,74.5,73.4,68.9,64.4,75,57,37,0.00,40.00,20,2,20,0.00
2013-8-29,100.0,86.3,73.6,76.3,70.6,65.7,88,62,39,0.00,40.00,7,1,12,0.00
2013-8-30,101.8,88.2,74.8,76.6,73.5,70.0,93,65,40,0.00,40.00,16,2,17,0.00
2013-8-31,101.7,87.2,76.3,79.2,73.6,70.0,85,65,48,0.00,40.00,14,2,14,0.00